Weather History for Menominee, MI

Change the Weather History Date:

Friday, March 28, 2014

  Actual Average Record
Temperature  
Mean Temperature 32 °F -  
Max Temperature 37 °F 46 °F 75 °F (1986)
Min Temperature 28 °F 27 °F 3 °F (2011)
Degree Days  
Heating Degree Days 32    
Moisture  
Dew Point 25 °F    
Average Humidity 76    
Maximum Humidity 100    
Minimum Humidity 52    
Precipitation  
Precipitation 0.12 in - - ()
Sea Level Pressure  
Sea Level Pressure 29.91 in    
Wind  
Wind Speed 10 mph (NNE)    
Max Wind Speed 18 mph    
Max Gust Speed 29 mph    
Visibility 10 miles    
Events      
Averages and records for this station are not official NWS values.
T = Trace of Precipitation, MM = Missing Value Source: NWS Daily Summary

Daily Weather History Graph

Daily Weather History Graph

Search for Another Location

Airport:

Trip Planner

Search our weather history database for the weather conditions in past years. The results will help you decide how hot, cold, wet, or windy it might be!

Date:

Astronomy

Mar. 28, 2014 Rise Set
Actual Time 6:38 AM CDT 7:13 PM CDT
Civil Twilight 6:09 AM CDT 7:42 PM CDT
Nautical Twilight 5:34 AM CDT 8:18 PM CDT
Astronomical Twilight 4:57 AM CDT 8:54 PM CDT
Moon 5:15 AM CDT (3/28) 5:04 PM CDT (3/28)
Length of Visible Light 13h 33m
Length of Day
12h 34m
Waning Crescent, 6% of the Moon is Illuminated
Mar 28
Waning Crescent
Mar 30
New
Apr 7
First Quarter
Apr 15
Full
Apr 22
Last Quarter

Hourly Weather History & Observations

Time (CDT) Temp. Windchill Dew Point Humidity Pressure Visibility Wind Dir Wind Speed Gust Speed Precip Events Conditions
12:15 AM 32.0 °F 25.6 °F 30.2 °F 93% 29.47 in 2.0 mi North 6.9 mph - 0.01 in   Overcast
12:35 AM 32.0 °F 24.8 °F 32.0 °F 100% 29.47 in 5.0 mi North 8.1 mph - 0.01 in   Overcast
12:55 AM 32.0 °F 24.8 °F 32.0 °F 100% 29.48 in 6.0 mi North 8.1 mph - 0.02 in   Overcast
1:15 AM 33.8 °F 27.0 °F 30.2 °F 87% 29.48 in 10.0 mi North 8.1 mph - N/A   Overcast
1:35 AM 33.8 °F 25.3 °F 32.0 °F 93% 29.49 in 10.0 mi North 11.5 mph - 0.01 in   Overcast
1:55 AM 33.8 °F 25.3 °F 32.0 °F 93% 29.49 in 10.0 mi North 11.5 mph - 0.01 in   Overcast
2:15 AM 33.8 °F 24.8 °F 32.0 °F 93% 29.50 in 10.0 mi North 12.7 mph 17.3 mph 0.02 in   Overcast
2:35 AM 33.8 °F 25.8 °F 32.0 °F 93% 29.52 in 10.0 mi North 10.4 mph - 0.02 in   Overcast
2:55 AM 33.8 °F 25.8 °F 30.2 °F 87% 29.53 in 10.0 mi North 10.4 mph - 0.03 in   Overcast
3:15 AM 33.8 °F 25.3 °F 30.2 °F 87% 29.54 in 10.0 mi North 11.5 mph - 0.01 in   Overcast
3:35 AM 33.8 °F 25.3 °F 30.2 °F 87% 29.55 in 5.0 mi North 11.5 mph 19.6 mph 0.01 in   Overcast
3:55 AM 33.8 °F 24.3 °F 30.2 °F 87% 29.56 in 10.0 mi North 13.8 mph 24.2 mph 0.02 in   Overcast
4:15 AM 33.8 °F 25.3 °F 30.2 °F 87% 29.57 in 10.0 mi North 11.5 mph 19.6 mph N/A   Overcast
4:35 AM 33.8 °F 23.5 °F 28.4 °F 81% 29.59 in 10.0 mi North 16.1 mph 24.2 mph N/A   Overcast
4:55 AM 33.8 °F 23.9 °F 30.2 °F 87% 29.60 in 10.0 mi North 15.0 mph 19.6 mph N/A   Overcast
5:15 AM 32.0 °F 20.5 °F 30.2 °F 93% 29.62 in 10.0 mi North 18.4 mph 24.2 mph N/A   Overcast
5:35 AM 32.0 °F 22.1 °F 28.4 °F 87% 29.64 in 10.0 mi North 13.8 mph 21.9 mph N/A   Overcast
5:55 AM 32.0 °F 20.5 °F 28.4 °F 87% 29.66 in 10.0 mi North 18.4 mph 28.8 mph N/A   Overcast
6:15 AM 32.0 °F 21.6 °F 26.6 °F 80% 29.68 in 10.0 mi North 15.0 mph 20.7 mph N/A   Overcast
6:35 AM 32.0 °F 22.5 °F 28.4 °F 87% 29.70 in 10.0 mi NNW 12.7 mph 18.4 mph N/A   Overcast
6:55 AM 30.2 °F 19.8 °F 28.4 °F 93% 29.73 in 10.0 mi NNW 13.8 mph 18.4 mph N/A   Overcast
7:15 AM 30.2 °F 19.8 °F 28.4 °F 93% 29.75 in 10.0 mi North 13.8 mph - N/A   Overcast
7:35 AM 30.2 °F 20.8 °F 26.6 °F 86% 29.77 in 10.0 mi NNW 11.5 mph 20.7 mph N/A   Overcast
7:55 AM 30.2 °F 20.8 °F 26.6 °F 86% 29.79 in 10.0 mi North 11.5 mph 20.7 mph N/A   Overcast
8:15 AM 30.2 °F 19.8 °F 26.6 °F 86% 29.81 in 10.0 mi NNW 13.8 mph 20.7 mph N/A   Overcast
8:35 AM 30.2 °F 20.2 °F 26.6 °F 86% 29.82 in 10.0 mi North 12.7 mph 20.7 mph N/A   Overcast
8:55 AM 30.2 °F 18.9 °F 26.6 °F 86% 29.84 in 10.0 mi NNW 16.1 mph - N/A   Overcast
9:15 AM 30.2 °F 20.8 °F 26.6 °F 86% 29.85 in 10.0 mi North 11.5 mph 20.7 mph N/A   Overcast
9:35 AM 30.2 °F 19.8 °F 24.8 °F 80% 29.87 in 10.0 mi NNW 13.8 mph - N/A   Overcast
9:55 AM 30.2 °F 20.8 °F 24.8 °F 80% 29.89 in 10.0 mi North 11.5 mph 24.2 mph N/A   Overcast
10:15 AM 30.2 °F 20.8 °F 24.8 °F 80% 29.90 in 10.0 mi NNW 11.5 mph 19.6 mph N/A   Overcast
10:35 AM 30.2 °F 20.2 °F 24.8 °F 80% 29.92 in 10.0 mi NNW 12.7 mph 18.4 mph N/A   Overcast
10:55 AM 30.2 °F 18.9 °F 24.8 °F 80% 29.93 in 10.0 mi NNW 16.1 mph 19.6 mph N/A   Overcast
11:15 AM 32.0 °F 22.1 °F 24.8 °F 75% 29.94 in 10.0 mi NNW 13.8 mph 17.3 mph 0.01 in   Overcast
11:35 AM 33.8 °F 23.9 °F 24.8 °F 70% 29.95 in 10.0 mi North 15.0 mph 21.9 mph 0.01 in   Scattered Clouds
11:55 AM 33.8 °F 24.8 °F 24.8 °F 70% 29.96 in 10.0 mi North 12.7 mph 17.3 mph 0.01 in   Mostly Cloudy
12:15 PM 33.8 °F 24.8 °F 23.0 °F 65% 29.97 in 10.0 mi North 12.7 mph 21.9 mph N/A   Overcast
12:35 PM 33.8 °F 25.8 °F 24.8 °F 70% 29.98 in 10.0 mi NNW 10.4 mph 16.1 mph 0.01 in   Mostly Cloudy
12:55 PM 33.8 °F 25.8 °F 24.8 °F 70% 29.99 in 10.0 mi North 10.4 mph 19.6 mph 0.02 in   Mostly Cloudy
1:15 PM 35.6 °F 26.6 °F 24.8 °F 65% 30.00 in 10.0 mi North 13.8 mph - N/A   Scattered Clouds
1:35 PM 35.6 °F 28.6 °F 24.8 °F 65% 30.01 in 10.0 mi NNW 9.2 mph - 0.01 in   Mostly Cloudy
1:55 PM 35.6 °F 27.5 °F 24.8 °F 65% 30.01 in 10.0 mi NNW 11.5 mph - 0.01 in   Mostly Cloudy
2:15 PM 35.6 °F 27.5 °F 24.8 °F 65% 30.02 in 10.0 mi North 11.5 mph 19.6 mph N/A   Mostly Cloudy
2:35 PM 35.6 °F 29.9 °F 24.8 °F 65% 30.03 in 10.0 mi North 6.9 mph - N/A   Mostly Cloudy
2:55 PM 37.4 °F 31.4 °F 24.8 °F 60% 30.03 in 10.0 mi North 8.1 mph - N/A   Mostly Cloudy
3:15 PM 35.6 °F 28.6 °F 23.0 °F 60% 30.05 in 10.0 mi North 9.2 mph - N/A   Mostly Cloudy
3:35 PM 37.4 °F 31.4 °F 23.0 °F 56% 30.07 in 10.0 mi North 8.1 mph - N/A   Mostly Cloudy
3:55 PM 37.4 °F 32.1 °F 21.2 °F 52% 30.09 in 10.0 mi NNW 6.9 mph - N/A   Scattered Clouds
4:15 PM 37.4 °F 31.4 °F 23.0 °F 56% 30.09 in 10.0 mi NNE 8.1 mph - N/A   Mostly Cloudy
4:35 PM 37.4 °F 31.4 °F 23.0 °F 56% 30.09 in 10.0 mi North 8.1 mph - N/A   Mostly Cloudy
4:55 PM 37.4 °F 32.8 °F 21.2 °F 52% 30.09 in 10.0 mi North 5.8 mph - N/A   Partly Cloudy
5:15 PM 37.4 °F 33.8 °F 21.2 °F 52% 30.10 in 10.0 mi NE 4.6 mph - N/A   Clear
5:35 PM 37.4 °F 32.8 °F 21.2 °F 52% 30.12 in 10.0 mi ENE 5.8 mph - N/A   Scattered Clouds
5:55 PM 37.4 °F 34.9 °F 21.2 °F 52% 30.14 in 10.0 mi ENE 3.5 mph - N/A   Overcast
6:15 PM 33.8 °F 27.0 °F 24.8 °F 70% 30.15 in 10.0 mi ESE 8.1 mph - N/A   Overcast
6:35 PM 33.8 °F 26.4 °F 23.0 °F 65% 30.17 in 10.0 mi SE 9.2 mph - N/A   Scattered Clouds
6:55 PM 32.0 °F 23.6 °F 21.2 °F 64% 30.19 in 10.0 mi ESE 10.4 mph - N/A   Mostly Cloudy
7:15 PM 32.0 °F 23.0 °F 19.4 °F 60% 30.18 in 10.0 mi East 11.5 mph - N/A   Overcast
7:35 PM 32.0 °F 23.0 °F 17.6 °F 55% 30.19 in 10.0 mi East 11.5 mph - N/A   Overcast
7:55 PM 32.0 °F 24.2 °F 17.6 °F 55% 30.19 in 10.0 mi East 9.2 mph - N/A   Mostly Cloudy
8:15 PM 32.0 °F 24.8 °F 19.4 °F 60% 30.19 in 10.0 mi East 8.1 mph - N/A   Overcast
8:35 PM 30.2 °F 23.4 °F 21.2 °F 69% 30.20 in 10.0 mi ESE 6.9 mph - N/A   Mostly Cloudy
8:55 PM 30.2 °F 25.4 °F 23.0 °F 75% 30.20 in 10.0 mi ESE 4.6 mph - N/A   Partly Cloudy
9:15 PM 30.2 °F 24.3 °F 23.0 °F 75% 30.21 in 10.0 mi SE 5.8 mph - N/A   Clear
9:35 PM 30.2 °F 24.3 °F 23.0 °F 75% 30.22 in 10.0 mi ESE 5.8 mph - N/A   Clear
9:55 PM 28.4 °F 22.2 °F 23.0 °F 80% 30.23 in 10.0 mi ESE 5.8 mph - N/A   Scattered Clouds
10:15 PM 28.4 °F 22.2 °F 23.0 °F 80% 30.23 in 10.0 mi East 5.8 mph - N/A   Mostly Cloudy
10:35 PM 28.4 °F 21.2 °F 21.2 °F 74% 30.23 in 10.0 mi East 6.9 mph - N/A   Partly Cloudy
10:55 PM 28.4 °F 22.2 °F 21.2 °F 74% 30.23 in 10.0 mi East 5.8 mph - N/A   Clear
11:15 PM 28.4 °F 22.2 °F 23.0 °F 80% 30.23 in 10.0 mi ENE 5.8 mph - N/A   Clear
11:35 PM 28.4 °F 22.2 °F 21.2 °F 74% 30.22 in 10.0 mi NE 5.8 mph - N/A   Clear
11:55 PM 28.4 °F 22.2 °F 21.2 °F 74% 30.22 in 10.0 mi ENE 5.8 mph - N/A   Clear